Location: Paddlesworth
(51.1000°N, 1.1333°E)
Time: 03:29:57
(UTC+00:00)

Cosmos 2082 Rocket - Pass Details

Date: 11 May 2021
Orbit: 834 x 852 km, 71.0° (Epoch: 14 June)

Event Time Altitude Azimuth Distance (km) Brightness Sun altitude
Rises 23:19:15 0° 317° (NW) 3,393 6.2 -20.4°
Reaches altitude 10° 23:22:54 10° 293° (WNW) 2,454 5.0 -20.5°
Maximum altitude 23:25:38 14° 264° (W) 2,183 4.3 -20.5°
Enters shadow 23:27:56 11° 238° (WSW) 2,372 4.3 -20.6°
